Date,Time,Wetness (Wet Dry or Ice),Wind Speed (m/s),Temperature (C),Humidity (%),Pressure (mb),Radiation (W/m^2)
2020-09-23,05:15:00,DRY,2.95,11.35,65.0,775.00,1.2
2020-09-23,05:20:00,DRY,2.37,11.33,65.0,775.00,1.7
2020-09-23,05:25:00,DRY,1.95,11.30,65.5,775.00,1.9
2020-09-23,05:30:00,DRY,3.13,11.20,66.3,775.00,1.5
2020-09-23,05:35:00,DRY,2.95,11.30,65.0,775.00,1.1
2020-09-23,05:40:00,DRY,2.43,11.33,64.7,775.00,0.8
2020-09-23,05:45:00,DRY,2.90,11.50,64.0,775.00,1.5
2020-09-23,05:50:00,DRY,2.20,11.40,64.3,775.00,0.6
2020-09-23,05:55:00,DRY,1.30,11.35,64.0,775.00,1.4
2020-09-23,06:00:00,DRY,2.57,11.47,64.0,775.00,0.9
2020-09-23,06:05:00,DRY,1.15,11.50,63.0,775.00,1.6
2020-09-23,06:10:00,DRY,1.13,11.47,63.0,775.00,1.2
2020-09-23,06:15:00,DRY,0.60,11.40,63.0,775.00,1.7
2020-09-23,06:20:00,DRY,1.20,11.47,63.0,775.00,1.2
2020-09-23,06:25:00,DRY,1.50,11.50,62.5,775.00,1.2
2020-09-23,06:30:00,DRY,1.57,11.70,61.0,775.00,1.1
2020-09-23,06:35:00,DRY,0.95,11.90,59.5,775.00,1.1
2020-09-23,06:40:00,DRY,1.50,11.90,60.3,775.00,1.7
2020-09-23,06:45:00,DRY,0.70,11.75,61.5,775.00,1.6
2020-09-23,06:50:00,DRY,1.53,12.37,55.3,774.67,1.8
2020-09-23,06:55:00,DRY,0.45,12.30,59.0,775.00,2.0
2020-09-23,07:00:00,DRY,1.60,11.67,62.3,775.00,3.8
2020-09-23,07:05:00,DRY,2.15,11.80,60.0,775.00,4.9
2020-09-23,07:10:00,DRY,1.73,11.47,64.3,775.00,7.1
2020-09-23,07:15:00,DRY,1.45,10.90,67.5,774.50,11.5
2020-09-23,07:20:00,DRY,2.67,10.73,68.0,775.00,20.8
2020-09-23,07:25:00,DRY,1.60,10.85,67.5,775.00,32.2
2020-09-23,07:30:00,DRY,1.93,11.07,66.7,775.00,41.2
2020-09-23,07:35:00,DRY,1.95,11.40,63.5,775.00,48.8
2020-09-23,07:40:00,DRY,2.50,11.97,58.7,775.00,58.8
2020-09-23,07:45:00,DRY,1.10,12.05,59.5,775.00,66.5
2020-09-23,07:50:00,DRY,0.73,11.77,63.0,775.00,80.4
2020-09-23,07:55:00,DRY,0.70,11.60,64.0,775.00,102.9
2020-09-23,08:00:00,DRY,1.70,11.63,64.0,775.00,113.9
2020-09-23,08:05:00,DRY,1.45,11.65,63.5,775.00,121.3
2020-09-23,08:10:00,DRY,0.83,11.43,65.7,775.00,125.3
2020-09-23,08:15:00,DRY,1.20,11.25,66.5,775.00,137.1
2020-09-23,08:20:00,DRY,1.67,11.10,68.0,775.00,158.7
2020-09-23,08:25:00,DRY,2.25,11.15,67.5,775.00,187.6
2020-09-23,08:30:00,DRY,3.33,11.33,64.7,775.00,204.3
2020-09-23,08:35:00,DRY,2.00,11.75,63.5,775.00,235.4
2020-09-23,08:40:00,DRY,2.90,11.60,64.7,775.00,215.2
2020-09-23,08:45:00,DRY,0.95,11.55,66.0,775.00,216.2
2020-09-23,08:50:00,DRY,1.80,12.20,60.3,775.00,220.8
2020-09-23,08:55:00,DRY,2.05,12.45,59.0,775.00,310.4
2020-09-23,09:00:00,DRY,2.20,12.70,57.7,775.00,245.8
2020-09-23,09:05:00,DRY,1.50,12.65,59.5,775.00,209.4
2020-09-23,09:10:00,DRY,2.40,12.43,60.3,775.00,216.3
2020-09-23,09:15:00,DRY,0.70,12.25,63.5,775.00,263.1
2020-09-23,09:20:00,DRY,0.53,12.17,64.3,775.00,257.5
2020-09-23,09:25:00,DRY,1.05,12.10,64.5,775.00,238.8
2020-09-23,09:30:00,DRY,0.87,11.80,65.7,775.00,264.4
2020-09-23,09:35:00,DRY,0.90,11.85,66.0,775.00,291.6
2020-09-23,09:40:00,DRY,0.97,11.83,65.7,775.00,339.0
2020-09-23,09:45:00,DRY,1.40,11.75,66.0,775.00,377.0
2020-09-23,09:50:00,DRY,1.47,11.97,65.3,775.00,447.1
2020-09-23,09:55:00,DRY,1.60,12.10,66.0,775.00,402.6
2020-09-23,10:00:00,DRY,2.53,11.93,66.0,775.00,549.8
2020-09-23,10:05:00,DRY,2.10,11.55,68.5,775.00,338.0
2020-09-23,10:10:00,DRY,2.83,11.60,68.0,775.00,571.2
2020-09-23,10:15:00,DRY,1.85,11.35,69.5,775.00,623.4
2020-09-23,10:20:00,DRY,2.27,11.63,69.0,775.00,670.5
2020-09-23,10:25:00,DRY,1.90,11.75,71.0,775.00,712.0
2020-09-23,10:30:00,DRY,2.57,11.90,71.7,775.00,685.2
2020-09-23,10:35:00,DRY,2.15,12.25,71.0,775.00,738.4
2020-09-23,10:40:00,DRY,2.23,12.03,74.0,775.00,685.6
2020-09-23,10:45:00,DRY,1.65,11.60,77.0,775.00,694.2
2020-09-23,10:50:00,DRY,2.33,11.97,76.0,775.00,586.3
2020-09-23,10:55:00,DRY,1.60,12.00,74.0,775.00,411.0
2020-09-23,11:00:00,DRY,1.90,12.23,74.0,775.00,376.7
2020-09-23,11:05:00,DRY,1.65,11.65,80.5,775.00,341.2
2020-09-23,11:10:00,DRY,1.43,11.50,81.3,775.00,348.9
2020-09-23,11:15:00,DRY,1.50,10.95,87.0,775.00,247.8
2020-09-23,11:20:00,DRY,2.00,10.87,85.7,775.00,261.9
2020-09-23,11:25:00,DRY,4.20,10.60,87.0,775.00,258.1
2020-09-23,11:30:00,DRY,2.63,10.50,87.3,775.00,246.4
2020-09-23,11:35:00,DRY,2.35,10.35,88.5,775.00,328.1
2020-09-23,11:40:00,DRY,1.10,10.47,88.3,775.00,413.8
2020-09-23,11:45:00,DRY,1.75,10.60,87.5,775.00,407.9
2020-09-23,11:50:00,DRY,2.13,10.97,86.3,775.00,366.5
2020-09-23,11:55:00,DRY,1.45,10.60,89.5,774.00,314.5
2020-09-23,12:00:00,DRY,3.50,10.40,91.0,774.00,295.7
2020-09-23,12:05:00,DRY,1.70,10.10,91.5,774.00,309.0
2020-09-23,12:10:00,DRY,3.23,10.13,93.0,774.00,291.3
2020-09-23,12:15:00,DRY,3.15,9.80,94.5,774.00,253.1
2020-09-23,12:20:00,DRY,3.13,9.73,95.0,774.00,376.9
2020-09-23,12:25:00,DRY,3.75,10.20,95.5,774.00,790.0
2020-09-23,12:30:00,DRY,3.70,10.67,92.7,774.00,364.5
2020-09-23,12:35:00,DRY,1.70,10.40,98.0,774.00,263.6
2020-09-23,12:40:00,DRY,2.13,10.57,99.0,774.00,324.9
2020-09-23,12:45:00,DRY,0.90,10.45,99.5,774.00,374.1
2020-09-23,12:50:00,DRY,2.00,10.03,99.0,774.00,537.3
2020-09-23,12:55:00,DRY,3.30,10.15,98.5,774.00,417.4
2020-09-23,13:00:00,DRY,3.53,10.23,98.7,774.00,219.2
2020-09-23,13:05:00,DRY,2.00,10.30,99.0,774.00,142.2
2020-09-23,13:10:00,WET,3.83,10.03,99.3,774.00,202.2
2020-09-23,13:15:00,WET,3.60,10.00,99.5,774.00,361.3
2020-09-23,13:20:00,DRY,2.43,9.97,99.3,774.00,717.1
2020-09-23,13:25:00,DRY,3.60,10.00,99.0,774.00,688.8
2020-09-23,13:30:00,DRY,3.80,9.80,98.0,774.00,255.7
2020-09-23,13:35:00,DRY,3.60,9.80,100.0,774.00,156.8
2020-09-23,13:40:00,DRY,2.23,9.80,100.0,774.00,359.4
2020-09-23,13:45:00,DRY,4.50,9.85,98.5,774.00,344.9
2020-09-23,13:50:00,WET,3.03,10.13,99.0,773.67,296.8
2020-09-23,13:55:00,WET,3.30,9.95,99.5,773.50,243.3
2020-09-23,14:00:00,WET,3.17,9.80,100.0,773.67,272.8
2020-09-23,14:05:00,WET,2.20,9.95,100.0,774.00,374.5
2020-09-23,14:10:00,WET,4.40,9.87,100.0,773.33,342.7
2020-09-23,14:15:00,WET,4.95,9.50,99.5,773.00,296.5
2020-09-23,14:20:00,WET,5.27,9.63,100.0,773.00,516.1
2020-09-23,14:25:00,WET,3.75,9.15,99.0,773.00,323.7
2020-09-23,14:30:00,WET,6.87,9.27,98.7,773.00,969.9
2020-09-23,14:35:00,WET,5.20,9.15,97.0,773.00,895.2
2020-09-23,14:40:00,WET,4.27,9.23,96.3,773.00,754.7
2020-09-23,14:45:00,WET,7.20,9.45,96.5,773.00,767.7
2020-09-23,14:50:00,WET,5.37,9.53,96.7,773.00,654.8
2020-09-23,14:55:00,DRY,4.75,9.50,95.0,773.00,504.0
2020-09-23,15:00:00,DRY,5.07,9.90,90.7,773.00,722.2
2020-09-23,15:05:00,DRY,6.30,10.05,89.0,773.00,711.1
2020-09-23,15:10:00,DRY,4.83,10.30,82.0,773.00,801.3
2020-09-23,15:15:00,DRY,3.45,10.85,80.5,773.00,581.9
2020-09-23,15:20:00,DRY,2.60,10.73,80.3,773.00,608.5
2020-09-23,15:25:00,DRY,1.90,10.80,80.0,773.00,492.4
2020-09-23,15:30:00,DRY,4.60,10.47,81.7,773.00,548.4
2020-09-23,15:35:00,DRY,2.20,10.80,78.5,773.00,552.9
2020-09-23,15:40:00,DRY,3.87,11.17,75.3,773.00,658.4
2020-09-23,15:45:00,DRY,3.30,11.05,75.5,773.00,616.9
2020-09-23,15:50:00,DRY,4.33,11.50,74.0,773.00,807.5
2020-09-23,15:55:00,DRY,4.55,10.85,75.0,773.00,568.5
2020-09-23,16:00:00,DRY,2.10,11.37,74.3,773.00,603.7
2020-09-23,16:05:00,DRY,2.15,11.00,74.5,773.00,685.3
2020-09-23,16:10:00,DRY,3.33,11.30,74.0,773.00,358.8
2020-09-23,16:15:00,DRY,1.60,11.15,75.0,773.00,288.6
2020-09-23,16:20:00,DRY,2.37,11.07,77.0,773.00,325.5
2020-09-23,16:25:00,DRY,1.45,10.55,78.0,773.00,185.1
2020-09-23,16:30:00,DRY,6.37,9.93,82.3,773.00,172.5
2020-09-23,16:35:00,DRY,5.05,9.85,82.5,773.00,183.4
2020-09-23,16:40:00,WET,4.40,9.93,80.7,773.00,170.6
2020-09-23,16:45:00,WET,5.45,9.45,86.5,772.50,176.8
2020-09-23,16:50:00,WET,2.97,9.10,91.3,773.00,201.7
2020-09-23,16:55:00,DRY,4.20,8.90,94.5,773.00,263.7
2020-09-23,17:00:00,DRY,4.77,9.03,92.3,773.00,251.4
2020-09-23,17:05:00,DRY,3.20,8.90,95.0,773.00,201.8
2020-09-23,17:10:00,DRY,4.00,8.90,93.0,773.00,176.6
2020-09-23,17:15:00,DRY,4.50,9.05,88.0,773.00,168.3
2020-09-23,17:20:00,DRY,3.83,8.90,90.7,773.00,140.1
2020-09-23,17:25:00,DRY,3.95,8.85,92.5,773.00,136.6
2020-09-23,17:30:00,DRY,2.47,8.90,92.3,773.00,119.2
2020-09-23,17:35:00,DRY,3.25,8.95,93.0,773.00,125.3
2020-09-23,17:40:00,DRY,2.93,8.97,92.0,773.00,106.2
2020-09-23,17:45:00,DRY,4.15,9.05,91.0,773.00,74.0
2020-09-23,17:50:00,DRY,3.70,9.07,90.7,773.00,78.2
2020-09-23,17:55:00,DRY,4.65,9.20,88.0,773.00,78.0
2020-09-23,18:00:00,DRY,3.80,9.03,90.0,773.00,77.8
2020-09-23,18:05:00,DRY,2.80,9.00,91.5,773.00,50.7
2020-09-23,18:10:00,DRY,3.10,8.80,93.0,773.00,51.8
2020-09-23,18:15:00,DRY,4.40,8.65,95.0,773.00,51.8
2020-09-23,18:20:00,DRY,4.50,8.60,95.3,773.00,43.4
2020-09-23,18:25:00,DRY,2.95,8.35,98.0,772.00,44.5
2020-09-23,18:30:00,DRY,3.93,8.37,98.3,772.00,35.3
2020-09-23,18:35:00,DRY,6.70,8.35,99.0,772.00,41.0
2020-09-23,18:40:00,WET,4.17,8.37,99.3,772.00,61.2
2020-09-23,18:45:00,WET,5.85,8.45,100.0,772.00,212.4
2020-09-23,18:50:00,WET,5.73,8.50,100.0,772.00,116.7
2020-09-23,18:55:00,WET,2.85,8.45,100.0,772.00,52.4
2020-09-23,19:00:00,WET,5.60,8.57,98.3,772.00,20.9
2020-09-23,19:05:00,WET,6.00,8.75,97.0,772.00,8.6
2020-09-23,19:10:00,WET,5.87,8.50,97.3,772.00,4.2
2020-09-23,19:15:00,WET,3.95,8.75,94.5,772.00,2.4
2020-09-23,19:20:00,WET,7.67,8.80,93.7,772.00,1.9
2020-09-23,19:25:00,WET,5.05,8.85,93.5,772.00,1.6
2020-09-23,19:30:00,WET,7.10,8.83,93.3,772.00,1.6
2020-09-23,19:35:00,WET,5.85,8.75,95.5,772.00,1.6
2020-09-23,19:40:00,WET,3.73,8.83,94.7,772.00,1.9
2020-09-23,19:45:00,WET,7.05,8.90,95.0,772.00,1.8
2020-09-23,19:50:00,WET,4.77,8.73,95.3,772.00,1.5
2020-09-23,19:55:00,WET,4.15,8.80,94.5,772.00,1.8
2020-09-23,20:00:00,WET,6.13,8.87,93.7,772.33,2.5
2020-09-23,20:05:00,WET,5.50,9.05,90.5,772.50,1.5
2020-09-23,20:10:00,DRY,5.13,9.07,89.0,773.00,1.5
2020-09-23,20:15:00,DRY,5.15,9.10,88.0,773.00,1.4
2020-09-23,20:20:00,DRY,5.13,9.10,87.0,773.00,1.3
2020-09-23,20:25:00,DRY,4.80,8.75,92.0,773.00,1.5
2020-09-23,20:30:00,DRY,4.73,9.00,85.3,773.00,1.2
2020-09-23,20:35:00,DRY,5.20,8.90,82.5,773.00,1.3
2020-09-23,20:40:00,DRY,4.47,9.03,81.7,773.00,1.3
2020-09-23,20:45:00,DRY,4.20,9.05,82.5,773.00,1.6
2020-09-23,20:50:00,DRY,4.90,9.03,81.0,773.00,1.3
2020-09-23,20:55:00,DRY,5.00,9.15,79.5,773.00,2.0
2020-09-23,21:00:00,DRY,3.93,9.30,77.3,773.00,1.3
2020-09-23,21:05:00,DRY,5.80,9.35,81.0,773.00,1.6
2020-09-23,21:10:00,DRY,4.87,9.27,83.7,773.00,1.0
2020-09-23,21:15:00,DRY,3.80,9.20,84.5,773.00,1.4
2020-09-23,21:20:00,DRY,4.83,9.23,84.0,773.00,1.1
2020-09-23,21:25:00,DRY,3.20,9.20,84.0,773.00,1.7
2020-09-23,21:30:00,DRY,4.17,9.23,82.3,773.00,1.2
2020-09-23,21:35:00,DRY,5.50,9.30,82.0,773.00,1.2
2020-09-23,21:40:00,DRY,5.30,9.30,82.0,773.00,1.8
2020-09-23,21:45:00,DRY,4.55,9.20,84.0,773.00,1.4
2020-09-23,21:50:00,DRY,4.03,8.90,86.7,773.00,1.4
2020-09-23,21:55:00,DRY,4.30,8.70,87.0,773.00,1.6
2020-09-23,22:00:00,DRY,3.80,8.53,89.0,773.00,1.3
2020-09-23,22:05:00,DRY,4.05,8.60,88.5,773.00,0.8
2020-09-23,22:10:00,DRY,6.13,8.70,84.7,773.00,1.1
2020-09-23,22:15:00,DRY,4.70,8.80,83.5,773.00,1.1
2020-09-23,22:20:00,DRY,4.90,8.73,84.0,773.00,1.4
2020-09-23,22:25:00,DRY,3.40,8.85,80.5,773.00,1.2
2020-09-23,22:30:00,DRY,5.33,9.03,80.7,773.00,1.2
2020-09-23,22:35:00,DRY,5.40,9.05,79.0,773.00,0.8
2020-09-23,22:40:00,DRY,4.90,9.13,79.7,773.00,1.0
2020-09-23,22:45:00,DRY,5.05,9.25,80.0,773.00,1.1
2020-09-23,22:50:00,DRY,5.27,9.23,81.0,773.00,1.1
2020-09-23,22:55:00,DRY,3.60,9.20,80.5,773.00,0.7
2020-09-23,23:00:00,DRY,4.35,9.25,79.5,773.00,1.2
2020-09-23,23:05:00,DRY,3.45,9.15,79.5,773.00,1.2
2020-09-23,23:10:00,DRY,4.10,9.13,80.3,773.00,0.8
2020-09-23,23:15:00,DRY,3.25,9.10,80.0,773.00,1.7
2020-09-23,23:20:00,DRY,3.50,9.10,80.7,773.00,1.4
2020-09-23,23:25:00,DRY,2.50,9.05,82.0,773.00,0.6
2020-09-23,23:30:00,DRY,3.67,9.03,82.0,773.00,1.6
2020-09-23,23:35:00,DRY,4.40,8.95,82.5,773.00,1.2
2020-09-23,23:40:00,DRY,3.30,8.97,83.3,773.00,1.4
2020-09-23,23:45:00,DRY,4.55,9.00,83.0,773.00,1.4
2020-09-23,23:50:00,DRY,4.67,9.00,84.0,773.00,1.2
2020-09-23,23:55:00,DRY,3.00,8.85,85.0,773.00,0.8
2020-09-24,00:00:00,DRY,4.50,9.03,83.3,773.00,1.1
2020-09-24,00:05:00,DRY,6.30,9.10,83.0,773.00,1.2
2020-09-24,00:10:00,DRY,3.50,9.13,83.0,773.00,0.8
2020-09-24,00:15:00,DRY,3.50,9.15,82.5,773.00,1.1
2020-09-24,00:20:00,DRY,3.73,9.00,84.7,772.67,1.1
2020-09-24,00:25:00,DRY,5.25,8.95,84.5,773.00,1.4
2020-09-24,00:30:00,DRY,5.13,9.00,84.3,772.67,1.0
2020-09-24,00:35:00,DRY,4.70,8.90,85.0,772.50,1.1
2020-09-24,00:40:00,DRY,4.23,9.03,83.7,772.33,1.3
2020-09-24,00:45:00,DRY,5.25,8.80,86.0,772.50,1.1
2020-09-24,00:50:00,DRY,4.30,8.77,86.3,772.67,1.2
2020-09-24,00:55:00,DRY,4.05,8.85,84.0,772.00,1.2
2020-09-24,01:00:00,DRY,4.37,8.93,83.7,772.33,1.1
2020-09-24,01:05:00,DRY,4.80,9.05,81.5,772.00,1.2
2020-09-24,01:10:00,DRY,3.50,9.17,80.0,772.67,1.4
2020-09-24,01:15:00,DRY,3.85,9.25,78.0,772.00,1.1
2020-09-24,01:20:00,DRY,4.17,9.50,74.3,772.67,1.6
2020-09-24,01:25:00,DRY,4.55,9.60,73.0,772.00,1.7
2020-09-24,01:30:00,DRY,3.77,9.47,73.3,772.00,1.1
2020-09-24,01:35:00,DRY,3.35,9.25,74.0,772.00,1.6
2020-09-24,01:40:00,DRY,4.17,9.17,73.0,772.00,1.0
2020-09-24,01:45:00,DRY,2.75,9.10,75.0,772.00,1.8
2020-09-24,01:50:00,DRY,4.97,8.97,76.7,772.00,0.9
2020-09-24,01:55:00,DRY,4.25,8.95,79.0,772.00,1.1
2020-09-24,02:00:00,DRY,3.57,8.83,82.0,772.00,1.7
2020-09-24,02:05:00,DRY,3.65,8.80,80.5,772.00,1.5
2020-09-24,02:10:00,DRY,5.33,8.97,78.7,772.00,1.2
2020-09-24,02:15:00,DRY,3.90,9.05,78.0,772.00,1.1
2020-09-24,02:20:00,DRY,3.43,8.97,78.7,772.00,0.5
2020-09-24,02:25:00,DRY,2.65,8.75,87.0,772.00,1.8
2020-09-24,02:30:00,DRY,4.43,8.50,89.7,772.00,1.2
2020-09-24,02:35:00,DRY,3.45,8.45,89.5,772.00,1.4
2020-09-24,02:40:00,DRY,3.23,8.40,89.3,772.00,1.2
2020-09-24,02:45:00,DRY,4.25,8.30,88.5,772.00,1.1
2020-09-24,02:50:00,DRY,3.50,8.70,81.3,772.00,1.3
2020-09-24,02:55:00,DRY,4.75,8.95,76.0,772.00,1.2
2020-09-24,03:00:00,DRY,4.07,9.03,75.3,772.00,1.5
2020-09-24,03:05:00,DRY,3.50,9.00,73.5,772.00,1.6
2020-09-24,03:10:00,DRY,3.60,9.00,73.7,772.00,1.1
2020-09-24,03:15:00,DRY,4.55,8.90,77.0,772.00,1.2
2020-09-24,03:20:00,DRY,2.87,8.57,82.3,772.00,0.9
2020-09-24,03:25:00,DRY,4.90,8.30,84.0,772.00,1.1
2020-09-24,03:30:00,DRY,5.23,8.33,80.3,772.00,1.6
2020-09-24,03:35:00,DRY,3.40,8.30,80.5,772.00,1.4
2020-09-24,03:40:00,DRY,3.73,8.53,75.7,772.00,1.2
2020-09-24,03:45:00,DRY,4.75,8.90,72.0,772.00,1.2
2020-09-24,03:50:00,DRY,4.07,8.97,70.7,772.00,1.3
2020-09-24,03:55:00,DRY,3.90,9.00,70.0,772.00,1.1
2020-09-24,04:00:00,DRY,5.10,8.93,68.7,772.00,1.4
2020-09-24,04:05:00,DRY,4.80,8.95,70.0,772.00,1.1
2020-09-24,04:10:00,DRY,3.50,8.97,71.0,772.00,1.0
2020-09-24,04:15:00,DRY,5.70,9.20,69.0,772.00,1.1
2020-09-24,04:20:00,DRY,4.50,9.13,70.0,772.00,1.1
2020-09-24,04:25:00,DRY,3.60,9.05,70.5,772.00,1.1
2020-09-24,04:30:00,DRY,4.57,9.03,69.0,772.00,1.0
2020-09-24,04:35:00,DRY,4.60,9.05,68.0,772.00,1.2
2020-09-24,04:40:00,DRY,5.00,9.00,68.3,772.00,1.2
2020-09-24,04:45:00,DRY,4.75,9.20,69.5,772.00,1.2
2020-09-24,04:50:00,DRY,4.27,9.20,71.0,772.00,1.0
2020-09-24,04:55:00,DRY,4.80,9.20,71.0,772.00,1.3
2020-09-24,05:00:00,DRY,4.47,9.13,71.3,772.00,1.3
2020-09-24,05:05:00,DRY,4.60,9.15,71.5,772.00,1.8
2020-09-24,05:10:00,DRY,5.67,9.17,72.7,772.00,1.3
2020-09-24,05:15:00,DRY,5.15,9.30,73.5,772.00,1.2
2020-09-24,05:20:00,DRY,3.47,9.17,75.0,772.00,1.3
2020-09-24,05:25:00,DRY,5.25,9.10,74.5,772.00,1.4
2020-09-24,05:30:00,DRY,4.47,8.87,76.7,772.00,1.2
2020-09-24,05:35:00,DRY,4.30,8.80,76.0,772.00,1.1
2020-09-24,05:40:00,DRY,5.03,8.87,76.7,772.00,0.9
2020-09-24,05:45:00,DRY,5.95,8.95,76.5,772.00,1.3
2020-09-24,05:50:00,DRY,4.53,8.70,79.0,772.00,1.0
2020-09-24,05:55:00,DRY,5.75,9.00,77.0,772.00,1.1
2020-09-24,06:00:00,DRY,6.57,9.10,78.0,772.00,0.6
2020-09-24,06:05:00,DRY,3.20,9.20,77.5,772.00,0.7
2020-09-24,06:10:00,DRY,5.47,9.10,77.0,772.00,1.2
2020-09-24,06:15:00,DRY,6.30,9.10,75.5,772.00,1.2
2020-09-24,06:20:00,DRY,7.47,9.13,76.0,772.00,1.3
2020-09-24,06:25:00,DRY,6.00,9.20,76.0,772.00,1.1
2020-09-24,06:30:00,DRY,5.33,9.17,75.7,772.00,1.2
2020-09-24,06:35:00,DRY,4.15,8.75,76.0,772.00,1.8
2020-09-24,06:40:00,DRY,4.37,8.80,75.7,772.00,1.1
2020-09-24,06:45:00,DRY,5.65,8.80,76.0,772.00,1.1
2020-09-24,06:50:00,DRY,4.30,8.97,76.0,772.00,1.5
2020-09-24,06:55:00,DRY,5.30,9.05,76.0,772.00,2.0
2020-09-24,07:00:00,DRY,4.57,9.13,75.3,772.00,3.9
2020-09-24,07:05:00,DRY,4.85,9.20,76.0,772.00,7.3
2020-09-24,07:10:00,DRY,3.77,8.97,76.3,772.67,10.2
2020-09-24,07:15:00,DRY,2.80,8.65,76.0,773.00,12.3
2020-09-24,07:20:00,DRY,3.70,8.77,76.3,773.00,16.2
2020-09-24,07:25:00,DRY,2.75,8.85,75.5,773.00,26.9
2020-09-24,07:30:00,DRY,4.10,8.63,76.7,773.00,38.2
2020-09-24,07:35:00,DRY,5.20,9.20,75.0,773.00,45.0
2020-09-24,07:40:00,DRY,3.33,8.77,75.3,773.00,39.2
2020-09-24,07:45:00,DRY,3.55,9.00,77.0,773.00,49.3
2020-09-24,07:50:00,DRY,3.80,8.53,77.3,773.00,73.7
2020-09-24,07:55:00,DRY,4.30,8.35,79.5,773.00,74.2
2020-09-24,08:00:00,DRY,3.50,8.40,80.7,773.00,61.6
2020-09-24,08:05:00,DRY,3.75,8.70,79.0,773.00,56.0
2020-09-24,08:10:00,DRY,4.27,8.70,79.0,773.00,63.4
2020-09-24,08:15:00,DRY,4.15,8.70,79.5,773.00,66.1
2020-09-24,08:20:00,DRY,3.87,9.10,76.3,773.00,73.6
2020-09-24,08:25:00,DRY,4.95,9.20,76.0,773.00,93.0
2020-09-24,08:30:00,DRY,4.70,9.07,77.0,773.00,113.8
2020-09-24,08:35:00,DRY,6.85,8.95,77.0,773.00,99.9
2020-09-24,08:40:00,DRY,4.50,9.13,75.3,773.00,270.6
2020-09-24,08:45:00,DRY,5.15,9.35,74.5,773.00,391.1
2020-09-24,08:50:00,DRY,3.83,9.53,74.0,773.00,315.8
2020-09-24,08:55:00,DRY,3.10,9.40,75.5,773.00,213.0
2020-09-24,09:00:00,DRY,4.17,9.23,76.7,773.00,231.3
2020-09-24,09:05:00,DRY,5.00,9.20,77.5,773.00,216.7
2020-09-24,09:10:00,DRY,4.17,9.23,78.3,773.00,538.5
2020-09-24,09:15:00,DRY,3.40,9.60,75.5,773.50,562.0
2020-09-24,09:20:00,DRY,2.67,9.53,77.3,774.00,591.2
2020-09-24,09:25:00,DRY,3.30,9.85,75.0,773.50,507.9
2020-09-24,09:30:00,DRY,2.87,10.17,73.7,773.67,555.1
2020-09-24,09:35:00,DRY,3.15,10.40,73.0,774.00,586.1
2020-09-24,09:40:00,DRY,2.60,10.33,75.3,774.00,576.9
2020-09-24,09:45:00,DRY,2.55,10.35,76.0,773.50,626.1
2020-09-24,09:50:00,DRY,1.73,10.50,74.3,773.67,556.1
2020-09-24,09:55:00,DRY,2.55,10.50,76.0,774.00,583.4
2020-09-24,10:00:00,DRY,1.13,10.40,76.7,774.00,543.5
2020-09-24,10:05:00,DRY,2.35,10.80,74.5,774.00,538.9
2020-09-24,10:10:00,DRY,2.13,10.47,74.3,774.00,575.2
2020-09-24,10:15:00,DRY,1.55,10.75,77.0,774.00,475.0
2020-09-24,10:20:00,DRY,3.33,10.70,75.7,774.00,558.7
2020-09-24,10:25:00,DRY,1.55,10.55,78.5,774.00,354.0
2020-09-24,10:30:00,DRY,2.00,10.27,79.3,774.00,405.5
2020-09-24,10:35:00,DRY,1.25,10.20,79.5,774.00,452.7
2020-09-24,10:40:00,DRY,1.90,10.13,82.0,774.00,463.7
2020-09-24,10:45:00,DRY,2.85,10.25,82.5,774.00,603.5
2020-09-24,10:50:00,DRY,2.57,10.30,82.3,774.00,464.3
2020-09-24,10:55:00,DRY,4.35,10.45,80.0,774.00,946.0
2020-09-24,11:00:00,DRY,3.97,10.73,80.0,774.00,965.1
2020-09-24,11:05:00,DRY,2.50,11.20,76.5,774.00,670.6
2020-09-24,11:10:00,DRY,2.93,11.23,78.3,774.00,633.7
2020-09-24,11:15:00,DRY,3.90,10.80,79.0,774.00,654.4
2020-09-24,11:20:00,DRY,2.60,10.77,82.3,774.00,788.1
2020-09-24,11:25:00,DRY,4.95,10.85,84.0,774.00,815.5
2020-09-24,11:30:00,DRY,3.23,11.23,82.3,774.00,765.6
2020-09-24,11:35:00,DRY,3.45,11.35,84.0,774.00,713.0
2020-09-24,11:40:00,DRY,3.87,10.60,88.7,774.00,369.8
2020-09-24,11:45:00,DRY,2.55,10.45,88.5,774.00,549.8
2020-09-24,11:50:00,DRY,3.27,10.47,89.0,774.00,374.1
2020-09-24,11:55:00,DRY,2.95,10.55,89.0,774.00,421.0
2020-09-24,12:00:00,DRY,3.77,10.63,88.0,774.00,626.2
2020-09-24,12:05:00,DRY,2.90,10.90,83.5,774.00,352.6
2020-09-24,12:10:00,DRY,3.70,10.73,90.3,774.00,333.3
2020-09-24,12:15:00,DRY,3.15,10.70,91.5,774.00,617.5
2020-09-24,12:20:00,DRY,6.50,10.73,87.0,774.00,1011.8
2020-09-24,12:25:00,DRY,3.15,10.55,91.0,774.00,373.0
2020-09-24,12:30:00,DRY,2.40,10.57,88.7,774.00,694.4
2020-09-24,12:35:00,DRY,5.50,10.85,84.5,774.00,870.5
2020-09-24,12:40:00,DRY,4.03,11.07,84.7,774.00,716.7
2020-09-24,12:45:00,DRY,2.65,10.85,84.0,774.00,358.9
2020-09-24,12:50:00,DRY,5.80,10.40,96.3,774.00,475.1
2020-09-24,12:55:00,DRY,3.75,10.50,95.5,774.00,632.5
2020-09-24,13:00:00,DRY,3.53,10.67,89.3,774.00,404.9
2020-09-24,13:05:00,DRY,4.55,10.40,94.0,774.00,603.4
2020-09-24,13:10:00,DRY,3.57,10.57,92.0,774.00,533.6
2020-09-24,13:15:00,DRY,3.30,10.60,90.0,774.00,887.0
2020-09-24,13:20:00,DRY,3.43,10.53,96.0,774.00,533.9
2020-09-24,13:25:00,DRY,3.45,10.70,91.5,774.00,607.0
2020-09-24,13:30:00,DRY,4.40,10.40,94.0,774.00,414.3
2020-09-24,13:35:00,DRY,2.50,10.60,97.0,774.00,517.6
2020-09-24,13:40:00,DRY,4.10,10.60,96.7,774.00,332.5
2020-09-24,13:45:00,DRY,5.05,10.60,95.5,774.00,392.5
2020-09-24,13:50:00,DRY,3.17,10.53,95.7,774.00,451.9
2020-09-24,13:55:00,DRY,3.90,10.40,97.0,774.00,669.2
2020-09-24,14:00:00,DRY,5.17,10.57,95.0,774.00,475.7
2020-09-24,14:05:00,DRY,1.95,10.25,96.0,774.00,475.4
2020-09-24,14:10:00,DRY,3.77,10.47,91.0,774.00,486.9
2020-09-24,14:15:00,DRY,3.80,10.80,89.0,774.00,715.0
2020-09-24,14:20:00,DRY,2.50,11.10,88.7,774.00,436.5
2020-09-24,14:25:00,DRY,4.05,10.80,92.5,774.00,292.2
2020-09-24,14:30:00,DRY,3.97,10.47,95.7,774.00,373.9
2020-09-24,14:35:00,DRY,4.85,10.55,96.0,774.00,416.1
2020-09-24,14:40:00,DRY,4.43,10.37,97.7,774.00,394.7
2020-09-24,14:45:00,DRY,2.70,10.35,97.5,774.00,423.1
2020-09-24,14:50:00,DRY,4.30,10.20,96.3,774.00,569.0
2020-09-24,14:55:00,DRY,4.55,9.80,95.5,774.00,198.7
2020-09-24,15:00:00,DRY,3.00,10.07,97.3,774.00,220.3
2020-09-24,15:05:00,DRY,4.50,9.60,96.5,774.00,384.2
2020-09-24,15:10:00,DRY,3.80,9.80,95.7,774.00,271.1
2020-09-24,15:15:00,DRY,4.00,9.45,96.5,774.00,254.0
2020-09-24,15:20:00,DRY,3.23,9.37,97.7,774.00,245.7
2020-09-24,15:25:00,DRY,4.65,9.45,95.0,774.00,378.4
2020-09-24,15:30:00,DRY,2.60,9.70,92.7,774.00,349.8
2020-09-24,15:35:00,DRY,4.05,9.65,92.5,774.00,435.4
2020-09-24,15:40:00,DRY,2.83,9.87,90.3,774.67,325.8
2020-09-24,15:45:00,DRY,5.15,9.80,90.5,775.00,380.3
2020-09-24,15:50:00,DRY,3.57,9.83,91.0,775.00,402.3
2020-09-24,15:55:00,DRY,4.95,10.15,85.5,775.00,339.6
2020-09-24,16:00:00,DRY,4.70,10.73,84.3,775.00,555.2
2020-09-24,16:05:00,DRY,5.20,11.00,83.5,775.00,533.9
2020-09-24,16:10:00,DRY,2.67,10.80,86.0,775.00,503.1
2020-09-24,16:15:00,DRY,4.65,10.75,86.0,775.00,343.6
2020-09-24,16:20:00,DRY,4.63,10.33,88.0,775.00,478.6
2020-09-24,16:25:00,DRY,3.70,10.40,87.5,775.00,658.8
2020-09-24,16:30:00,DRY,3.60,10.40,89.0,775.00,275.6
2020-09-24,16:35:00,DRY,4.60,10.10,91.0,775.00,313.0
2020-09-24,16:40:00,DRY,2.33,10.27,89.0,775.00,284.8
2020-09-24,16:45:00,DRY,3.10,10.40,85.5,775.00,531.3
2020-09-24,16:50:00,DRY,4.70,10.50,85.0,775.00,592.5
2020-09-24,16:55:00,DRY,3.65,10.45,86.5,775.00,450.7
2020-09-24,17:00:00,DRY,5.33,10.13,89.7,775.00,393.8
2020-09-24,17:05:00,DRY,4.20,10.25,90.0,775.00,353.8
2020-09-24,17:10:00,DRY,3.60,10.37,89.3,775.00,381.3
2020-09-24,17:15:00,DRY,4.50,10.15,90.0,775.00,361.1
2020-09-24,17:20:00,DRY,3.77,9.80,92.0,775.00,385.1
2020-09-24,17:25:00,DRY,3.70,10.05,88.0,775.00,382.6
2020-09-24,17:30:00,DRY,3.87,10.40,84.7,775.00,333.3
2020-09-24,17:35:00,DRY,4.70,10.15,89.5,775.00,383.5
2020-09-24,17:40:00,DRY,5.63,10.03,90.0,775.00,249.6
2020-09-24,17:45:00,DRY,3.85,9.90,91.5,775.00,179.2
2020-09-24,17:50:00,DRY,3.23,10.10,88.7,775.00,228.6
2020-09-24,17:55:00,DRY,3.25,10.45,85.0,775.00,195.6
2020-09-24,18:00:00,DRY,3.23,9.97,89.7,775.00,213.8
2020-09-24,18:05:00,DRY,3.15,9.95,91.0,775.00,229.3
2020-09-24,18:10:00,DRY,3.40,10.13,91.3,775.33,255.2
2020-09-24,18:15:00,DRY,0.90,10.00,92.0,776.00,227.0
2020-09-24,18:20:00,DRY,3.57,10.07,92.7,776.00,173.0
2020-09-24,18:25:00,DRY,2.90,9.95,92.0,776.00,122.3
2020-09-24,18:30:00,DRY,2.40,9.80,93.3,775.33,133.9
2020-09-24,18:35:00,DRY,4.80,9.70,91.5,775.50,93.3
2020-09-24,18:40:00,DRY,3.87,9.63,93.0,775.67,74.0
2020-09-24,18:45:00,DRY,3.50,9.55,92.5,776.00,62.7
2020-09-24,18:50:00,DRY,3.27,9.27,95.0,776.00,43.1
2020-09-24,18:55:00,DRY,3.80,9.25,94.0,776.00,29.9
2020-09-24,19:00:00,DRY,3.67,9.10,96.0,776.00,17.2
2020-09-24,19:05:00,DRY,3.85,9.00,97.0,776.00,9.0
2020-09-24,19:10:00,DRY,3.97,9.13,94.7,776.00,4.5
2020-09-24,19:15:00,DRY,5.00,9.30,91.5,776.00,2.4
2020-09-24,19:20:00,DRY,2.50,9.40,90.3,776.00,2.1
2020-09-24,19:25:00,DRY,4.15,9.15,95.0,776.00,1.9
2020-09-24,19:30:00,DRY,3.73,9.13,93.7,776.00,1.4
2020-09-24,19:35:00,DRY,3.45,9.10,93.5,776.00,1.4
2020-09-24,19:40:00,DRY,5.13,9.07,94.3,776.00,1.4